Location: Lafig�re
(44.4503°N, 4.0357°E)
Time: 16:21:45
(UTC+00:00)

Cosmos 2298 Rocket - Pass Details

Date: 24 September 2020
Orbit: 777 x 783 km, 74.0° (Epoch: 25 October)

Event Time Altitude Azimuth Distance (km) Brightness Sun altitude
Rises 18:17:32 0° 192° (SSW) 3,256 7.3 -8.1°
Reaches altitude 10° 18:19:55 10° 190° (S) 2,332 6.6 -8.5°
Maximum altitude 18:25:11 70° 108° (ESE) 832 4.0 -9.4°
Drops below altitude 10° 18:30:30 10° 25° (NNE) 2,347 6.4 -10.4°
Sets 18:32:54 0° 23° (NNE) 3,278 7.1 -10.8°
